Regional Weather Roundup
Issued by NWS

Home | Current Version | Previous Version | Graphics & Text | Print | Product List | Glossary On
Versions: 1 2 3 4 5 6 7 8 9 10 11 12 13 14 15 16 17 18 19 20 21 22 23 24 25 26 27 28 29 30 31 32 33 34 35 36 37 38 39 40 41 42 43 44 45 46 47 48 49 50
000
ASUS43 KMKX 121359
RWRWI

WISCONSIN REGIONAL WEATHER ROUNDUP
NATIONAL WEATHER SERVICE MILWAUKEE/SULLIVAN WI
800 AM CST TUE DEC 12 2017

NOTE: "FAIR" INDICATES FEW OR NO CLOUDS BELOW 12,000 FEET WITH NO
SIGNIFICANT WEATHER AND/OR OBSTRUCTIONS TO VISIBILITY.

WIZ001-002-006>008-014>016-023>028-121500-
NORTHWEST WISCONSIN

CITY           SKY/WX    TMP DP  RH WIND       PRES   REMARKS
SUPERIOR ARPT  CLOUDY     3  -1  80 W3        30.20S
ASHLAND        CLOUDY     2  -2  83 W7        30.15S WCI -11
HAYWARD        PTCLDY     1  -4  79 CALM      30.13S
SIREN          CLOUDY     2  -2  84 NW5       30.18S WCI  -8
CUMBERLAND     CLOUDY     3   0  85 NW7       30.13F WCI  -9
RICE LAKE      CLOUDY     3   0  86 CALM      30.16F
CHETEK           N/A      3   0  88 NW3       30.16S
LADYSMITH      CLOUDY     3  -1  83 NW7       30.13S WCI  -9
EAU CLAIRE     NOT AVBL
MENOMONIE      CLOUDY     5   2  86 W6        30.18F WCI  -5
NEW RICHMOND   CLOUDY     2  -2  83 W3        30.19S
OSCEOLA        CLOUDY     3  -1  83 W7        30.23S WCI -10
$$

WIZ003>005-009-010-017-018-121500-
NORTH CENTRAL WISCONSIN

CITY           SKY/WX    TMP DP  RH WIND       PRES   REMARKS
MANITOWISH WTR CLOUDY     6   3  86 NW9G16    30.01S FOG     WCI  -8
ARBOR VITAE    FLURRIES  11   7  81 W8        30.00S WCI   0
WOODRUFF       FLURRIES  11   7  81 W8        30.00S WCI   0
RHINELANDER    CLOUDY     8   3  80 W8        30.00S WCI  -4
EAGLE RIVER    CLOUDY    10   3  74 NW13      29.98S WCI  -5
LAND O LAKES   LGT SNOW   9   5  83 NW8       29.99F WCI  -3
PHILLIPS       CLOUDY     4   0  81 NW8       30.05F WCI  -9
TOMAHAWK       CLOUDY     8   1  74 NW8       30.04S WCI  -5
MEDFORD        CLOUDY     6   0  77 NW10G16   30.05F WCI  -9
MERRILL        CLOUDY    10   1  68 NW9       30.05F WCI  -3
$$

WIZ029-030-035-036-043>047-121500-
CENTRAL WISCONSIN

CITY           SKY/WX    TMP DP  RH WIND       PRES   REMARKS
WAUSAU         CLOUDY    10   0  63 NW13      30.05S WCI  -5
MOSINEE        PTCLDY     9   1  72 NW14G20   30.07S WCI  -8
MARSHFIELD     CLEAR      5   0  79 NW14      30.07S WCI -12
STEVENS POINT  CLOUDY    10   1  65 NW10      30.08S WCI  -4
WAUPACA        CLOUDY    17   4  57 NW14G21   30.08S WCI   3
WAUTOMA        CLOUDY    12   3  67 NW9       30.10S WCI   0
WISC RAPIDS    CLOUDY    10   2  69 NW12      30.10S WCI  -5
CAMP DOUGLAS   PTCLDY    10   3  72 NW9       30.12F WCI  -2
$$

WIZ011>013-019>022-031-037>040-048>050-121500-
NORTHEAST WISCONSIN

CITY           SKY/WX    TMP DP  RH WIND       PRES   REMARKS
ANTIGO         CLOUDY    10   4  74 NW12      30.00S WCI  -4
SHAWANO        CLOUDY    17   3  55 N10       30.06S WCI   4
OCONTO         CLOUDY    13   2  61 N7G16     30.06R WCI   3
STURGEON BAY   MOCLDY    13   2  61 NW21G35   30.03R WCI  -5
GREEN BAY      CLOUDY    16   6  65 N12       30.06S WCI   3
MANITOWOC      FLURRIES  15   5  64 N18       30.04S WCI  -2
APPLETON       CLOUDY    16   1  53 NW16      30.03S WCI   0
CLINTONVILLE   NOT AVBL
OSHKOSH        CLOUDY    16   5  62 NW12      30.05S WCI   3
$$

WIZ032>034-041-042-053>061-121500-
SOUTHWEST WISCONSIN

CITY           SKY/WX    TMP DP  RH WIND       PRES   REMARKS
LA CROSSE      CLEAR     12   4  70 NW12      30.19F WCI  -2
SPARTA         CLEAR      9   3  78 W5        30.17S WCI   0
VIROQUA        CLEAR      8   4  86 NW9       30.12R WCI  -6
BOSCOBEL       CLEAR     10   3  73 CALM      30.18S
PRAIRIE DU CHI PTCLDY    13   7  75 NW9       30.19S WCI   1
PLATTEVILLE    CLEAR     12   8  81 NW9       30.14R WCI   0
$$

WIZ056-057-062-063-064-067-068-121500-
SOUTH CENTRAL WISCONSIN

CITY           SKY/WX    TMP DP  RH WIND       PRES   REMARKS
REEDSBURG      PTCLDY    11   4  72 N9        30.12S WCI  -1
BARABOO/DELLS  MOCLDY    12   3  68 NW8       30.10F WCI   0
LONE ROCK      NOT AVBL
MINERAL POINT  PTCLDY    14   9  79 NW12G17   30.10S WCI   0
MADISON        MOCLDY    14   5  67 NW9       30.10S WCI   2
MIDDLETON      MOCLDY    15   7  71 NW7       30.11R WCI   5
WATERTOWN      CLEAR     13   4  69 NW13G18   30.08R WCI  -2
MONROE         PTCLDY    12   7  79 NW7       30.09S WCI   2
JANESVILLE     MOCLDY    18   7  62 N10G18    30.10R WCI   6
$$

WIZ051-052-058>065-066-070>072-121500-
SOUTHEAST WISCONSIN

CITY           SKY/WX    TMP DP  RH WIND       PRES   REMARKS
MILWAUKEE      MOCLDY    18   7  62 NW13      30.05R WCI   5
WAUKESHA       PTCLDY    14   5  67 NW12      30.06S WCI   0
MILWAUKEE/TIMM MOCLDY    16   5  62 NW9       30.06R WCI   4
RACINE         CLOUDY    17   6  62 NW12      30.07R WCI   4
BURLINGTON     CLEAR     27  22  82 NW10      30.07R WCI  17
KENOSHA        CLEAR     16   5  62 NW13G22   30.05S WCI   2
FOND DU LAC    CLOUDY    16   4  59 NW14      30.06R WCI   2
SHEBOYGAN      CLOUDY    15   6  67 N13       30.04S WCI   1
WEST BEND      CLOUDY    18   5  57 NW14      30.03S WCI   4
JUNEAU         CLEAR     11   2  66 NW8G16    30.08R WCI   0
$$

LSZ147-162-121500-
LAKE SUPERIOR

STATION/POSITION TIME  TEMP    WIND        PRES    WAVE
                       AIR SEA DIR/SP/G            HT/PER
                 (UTC) (F)     (DEG/KT/KT) (MB)    (FT/S)
DEVILS ISLAND    1300    9     290/ 13/ 16 1022.4F
SAXON HARBOR     1330   11                 1020.0F
$$

LMZ867-665-643>646-121500-
LAKE MICHIGAN

STATION/POSITION TIME  TEMP    WIND        PRES    WAVE
                       AIR SEA DIR/SP/G            HT/PER
                 (UTC) (F)     (DEG/KT/KT) (MB)    (FT/S)
NORTHPORT PIER   1333   16     310/ 26     1015.6S
KEWAUNEE LAKESHO 1330   14     340/ 11/ 18 1016.4S
SHEBOYGAN LAKESH 1300   16     330/ 18/ 22 1018.3R
PORT WASHINGTON  1340   18     320/  6/ 17 1018.6S
MILWAUKEE LAKESH 1330   19     330/ 12/ 15   N/A
KENOSHA   LAKESH 1300   17     310/ 13/ 17 1017.6
$$

TC  - TEMPERATURE IN CELSIUS
VSB - VISIBILITY IN STATUTE MILES
WCI - WIND CHILL INDEX
HX  - HEAT INDEX





USA.gov is the U.S. government's official web portal to all federal, state and local government web resources and services.